SCP
-0 -0 -0 -0 -0 -0 -0 -0 -0 -0 -0 -0 0 0 0 0 -0 -0 -0 -0 -0 -0 -0 0 -0 0 0
0 -0 -0 -0 -0 -0 -0 -0 -0 -0 -0 0 0 0 0 0 -0 0 0 0 -0 -0 0 0 0 0 0
0 0 0 -0 0 0 0 -0 -0 0 0 0 0 0 0 0 0 0 0 0 0 0 0 0 0 0 0
0 0 0 0 0 0 0 0 0 0 0 0 0 0 0 0 0 0 0 0 0 0 0 0 0 0 0
0 0 0 0 0 0 0 0 0 0 0 0 0 0 0 0 0 0 0 0 0 0 0 0 0 0 0
0 0 0 0 0 0 0 0 0 0 0 0 0 0 0 0 0 0 0 0 0 0 0 0 0 0 0
0 0 0 0 0 0 0 0 0 0 0 0 0 0 0 0 0 0 0 0 0 0 0 0 0 0 0
0 0 0 0 0 0 0 0 0 0 0 0 0 0 0 0 0 0 0 0 0 0 0 0 0 0 0
0 0 0 0 0 0 0 0 0 0 0 0 0 0 0 0 0 0 0 0 0 0 0 0 0 0 0
0 0 0 0 0 0 0 0 0 0 0 0 0 0 0 0 0 0 0 0 0 0 0 0 0 0 0
0 0 0 0 0 0 0 0 0 0 0 0 0 0 0 0 0 0 0 0 0 0 0 0 0 0 0
0 0 0 0 0 0 0 0 0 0 0 0 0 0 0 0 0 0 0 0 0 0 0 0 0 0 0
0 0 0 0 0 0 0 0 0 0 0 0 0 0 0 0 0 0 0 0 0 0 0 0 0 0 0
0 0 0 0 0 0 0 0 0 0 0 0 0 0 0 0 0 0 0 0 0 0 0 0 0 0 0
0 0 0 0 0 0 0 0 0 0 0 0 0 0 0 0 0 0 0 0 0 0 0 0 0 0 0
0 0 0 0 0 0 0 0 0 0 0 0 0 0 0 0 0 0 0 0 0 0 0 0 0 0 0
Wind_Speed_500mb
35 33 28 21 16 15 18 20 20 23 27 29 28 25 22 19 16 15 15 16 16 17 18 19 20 19 18
34 31 27 23 18 19 21 22 22 25 28 28 25 21 16 14 13 12 12 13 18 21 22 23 22 21 21
32 29 27 23 22 23 24 21 23 26 26 24 19 15 12 10 9 9 11 14 20 27 27 26 25 24 22
33 29 27 26 27 27 24 23 27 27 25 21 16 13 8 5 6 10 13 17 23 29 31 30 26 22 20
33 31 31 31 31 28 25 26 27 25 21 17 14 10 4 2 7 13 17 22 28 32 31 26 23 23 24
34 32 31 32 30 27 26 26 25 23 19 16 13 7 2 8 14 18 25 28 32 35 30 26 24 25 24
38 38 37 34 30 27 26 26 24 22 19 15 11 3 2 8 12 18 29 31 32 28 27 26 24 22 19
41 39 38 36 32 29 26 25 25 21 17 14 9 7 5 11 15 19 29 28 27 24 24 24 22 19 17
40 39 38 34 32 31 27 26 23 19 15 12 9 9 10 16 18 23 27 27 27 23 22 21 20 17 15
40 42 40 34 29 27 26 23 23 19 19 17 13 13 16 18 24 28 25 28 23 23 22 18 16 15 15
47 45 38 37 32 27 28 24 21 21 18 18 19 18 20 25 26 26 24 18 17 17 13 10 11 12 13
47 46 43 37 37 35 31 24 23 21 23 22 23 30 29 26 21 17 15 15 16 17 13 9 9 10 8
52 51 44 43 41 39 35 32 31 26 29 32 32 30 25 20 14 7 4 7 13 18 18 13 12 12 12
52 49 45 44 41 41 39 36 35 34 34 33 28 23 14 9 2 3 11 23 26 21 16 15 11 12 13
54 51 52 51 47 46 43 40 39 37 31 25 16 10 5 8 14 22 26 14 7 4 6 4 5 4 8
60 58 57 57 57 53 48 44 37 29 24 14 7 10 13 20 24 9 6 7 6 5 6 7 7 9 4
Wind_Direction_500mb
161 167 178 194 200 181 157 148 142 137 134 130 125 119 113 107 97 82 67 51 37 18 4 353 348 342 339
179 185 193 198 192 172 162 157 151 145 141 136 132 126 116 102 83 63 42 26 11 356 348 339 337 334 332
189 193 196 193 181 172 167 162 156 151 147 143 141 137 120 100 70 32 10 2 355 345 344 339 342 336 332
193 196 195 188 179 173 169 165 162 160 158 153 148 143 131 96 32 2 349 346 344 340 337 336 342 345 338
193 195 189 180 177 174 171 170 169 167 164 162 158 161 165 312 344 349 343 340 340 341 343 345 343 340 341
193 189 184 178 177 177 177 176 177 174 174 177 180 182 259 13 357 347 350 345 340 339 343 343 343 341 338
192 186 180 178 178 180 182 181 182 182 185 190 201 217 347 331 341 332 337 339 338 339 339 338 337 338 339
192 186 180 180 186 187 186 186 187 189 192 201 218 254 313 311 319 324 325 332 335 333 330 331 334 334 331
189 183 182 184 187 188 187 189 183 185 195 200 231 267 288 303 308 306 311 316 316 317 321 321 323 325 324
184 185 188 186 192 189 189 183 197 196 212 227 260 271 286 299 310 309 312 306 303 303 313 322 323 319 315
185 184 189 193 200 199 202 205 200 206 219 233 256 269 278 287 291 284 283 291 311 326 333 334 312 300 300
190 192 199 205 212 209 216 218 228 226 246 250 262 260 263 266 274 282 293 322 352 8 4 342 298 286 290
196 197 202 209 212 215 215 223 227 246 238 248 252 257 266 271 277 284 343 21 348 335 315 291 252 257 283
205 207 212 216 217 220 219 223 225 234 239 242 244 248 241 237 133 14 321 310 302 294 275 264 242 259 272
212 211 216 215 217 217 213 223 229 231 230 231 216 218 218 250 271 292 298 296 308 313 309 302 252 230 294
212 216 223 226 221 215 218 216 212 208 209 187 225 246 260 287 298 318 33 20 34 32 3 353 348 335 336
Wind_Speed_850mb
35 33 28 21 16 15 18 20 20 23 27 29 28 25 22 19 16 15 15 16 16 17 18 19 20 19 18
34 31 27 23 18 19 21 22 22 25 28 28 25 21 16 14 13 12 12 13 18 21 22 23 22 21 21
32 29 27 23 22 23 24 21 23 26 26 24 19 15 12 10 9 9 11 14 20 27 27 26 25 24 22
33 29 27 26 27 27 24 23 27 27 25 21 16 13 8 5 6 10 13 17 23 29 31 30 26 22 20
33 31 31 31 31 28 25 26 27 25 21 17 14 10 4 2 7 13 17 22 28 32 31 26 23 23 24
34 32 31 32 30 27 26 26 25 23 19 16 13 7 2 8 14 18 25 28 32 35 30 26 24 25 24
38 38 37 34 30 27 26 26 24 22 19 15 11 3 2 8 12 18 29 31 32 28 27 26 24 22 19
41 39 38 36 32 29 26 25 25 21 17 14 9 7 5 11 15 19 29 28 27 24 24 24 22 19 17
40 39 38 34 32 31 27 26 23 19 15 12 9 9 10 16 18 23 27 27 27 23 22 21 20 17 15
40 42 40 34 29 27 26 23 23 19 19 17 13 13 16 18 24 28 25 28 23 23 22 18 16 15 15
47 45 38 37 32 27 28 24 21 21 18 18 19 18 20 25 26 26 24 18 17 17 13 10 11 12 13
47 46 43 37 37 35 31 24 23 21 23 22 23 30 29 26 21 17 15 15 16 17 13 9 9 10 8
52 51 44 43 41 39 35 32 31 26 29 32 32 30 25 20 14 7 4 7 13 18 18 13 12 12 12
52 49 45 44 41 41 39 36 35 34 34 33 28 23 14 9 2 3 11 23 26 21 16 15 11 12 13
54 51 52 51 47 46 43 40 39 37 31 25 16 10 5 8 14 22 26 14 7 4 6 4 5 4 8
60 58 57 57 57 53 48 44 37 29 24 14 7 10 13 20 24 9 6 7 6 5 6 7 7 9 4
Wind_Direction_850mb
161 167 178 194 200 181 157 148 142 137 134 130 125 119 113 107 97 82 67 51 37 18 4 353 348 342 339
179 185 193 198 192 172 162 157 151 145 141 136 132 126 116 102 83 63 42 26 11 356 348 339 337 334 332
189 193 196 193 181 172 167 162 156 151 147 143 141 137 120 100 70 32 10 2 355 345 344 339 342 336 332
193 196 195 188 179 173 169 165 162 160 158 153 148 143 131 96 32 2 349 346 344 340 337 336 342 345 338
193 195 189 180 177 174 171 170 169 167 164 162 158 161 165 312 344 349 343 340 340 341 343 345 343 340 341
193 189 184 178 177 177 177 176 177 174 174 177 180 182 259 13 357 347 350 345 340 339 343 343 343 341 338
192 186 180 178 178 180 182 181 182 182 185 190 201 217 347 331 341 332 337 339 338 339 339 338 337 338 339
192 186 180 180 186 187 186 186 187 189 192 201 218 254 313 311 319 324 325 332 335 333 330 331 334 334 331
189 183 182 184 187 188 187 189 183 185 195 200 231 267 288 303 308 306 311 316 316 317 321 321 323 325 324
184 185 188 186 192 189 189 183 197 196 212 227 260 271 286 299 310 309 312 306 303 303 313 322 323 319 315
185 184 189 193 200 199 202 205 200 206 219 233 256 269 278 287 291 284 283 291 311 326 333 334 312 300 300
190 192 199 205 212 209 216 218 228 226 246 250 262 260 263 266 274 282 293 322 352 8 4 342 298 286 290
196 197 202 209 212 215 215 223 227 246 238 248 252 257 266 271 277 284 343 21 348 335 315 291 252 257 283
205 207 212 216 217 220 219 223 225 234 239 242 244 248 241 237 133 14 321 310 302 294 275 264 242 259 272
212 211 216 215 217 217 213 223 229 231 230 231 216 218 218 250 271 292 298 296 308 313 309 302 252 230 294
212 216 223 226 221 215 218 216 212 208 209 187 225 246 260 287 298 318 33 20 34 32 3 353 348 335 336